TimeAKDT,TemperatureF,Dew PointF,Humidity,Sea Level PressureIn,VisibilityMPH,Wind Direction,Wind SpeedMPH,Gust SpeedMPH,PrecipitationIn,Events,Conditions,WindDirDegrees,DateUTC
12:53 AM,61.0,46.0,58,29.55,10.0,Calm,Calm,-,N/A,,Mostly Cloudy,0,2013-07-08 08:53:00
1:53 AM,57.9,48.0,70,29.56,10.0,Calm,Calm,-,0.00,,Mostly Cloudy,0,2013-07-08 09:53:00
2:53 AM,57.0,46.0,67,29.57,10.0,Calm,Calm,-,N/A,,Mostly Cloudy,0,2013-07-08 10:53:00
3:53 AM,55.0,48.0,77,29.58,8.0,Calm,Calm,-,N/A,,Mostly Cloudy,0,2013-07-08 11:53:00
4:53 AM,53.1,48.0,83,29.59,8.0,Calm,Calm,-,N/A,,Mostly Cloudy,0,2013-07-08 12:53:00
5:53 AM,51.1,45.0,80,29.60,10.0,SSE,3.5,-,N/A,,Mostly Cloudy,150,2013-07-08 13:53:00
6:53 AM,54.0,46.9,77,29.61,10.0,South,4.6,-,N/A,,Mostly Cloudy,190,2013-07-08 14:53:00
7:53 AM,55.0,48.0,77,29.62,10.0,WSW,3.5,-,N/A,,Mostly Cloudy,250,2013-07-08 15:53:00
8:53 AM,59.0,48.9,69,29.62,10.0,West,9.2,-,N/A,,Mostly Cloudy,270,2013-07-08 16:53:00
9:53 AM,60.1,48.9,67,29.62,10.0,WSW,11.5,-,N/A,,Mostly Cloudy,240,2013-07-08 17:53:00
10:53 AM,61.0,48.0,62,29.62,10.0,West,6.9,-,N/A,,Mostly Cloudy,280,2013-07-08 18:53:00
11:53 AM,61.0,46.0,58,29.63,10.0,WNW,5.8,-,N/A,,Mostly Cloudy,300,2013-07-08 19:53:00
12:53 PM,63.0,48.0,58,29.63,10.0,WSW,5.8,-,N/A,,Mostly Cloudy,250,2013-07-08 20:53:00
1:53 PM,64.0,48.0,56,29.63,10.0,West,5.8,-,N/A,,Overcast,260,2013-07-08 21:53:00
2:53 PM,64.0,46.9,54,29.63,10.0,West,3.5,-,N/A,,Overcast,280,2013-07-08 22:53:00
3:53 PM,57.0,51.1,81,29.65,10.0,South,3.5,-,0.14,Rain,Light Rain,180,2013-07-08 23:53:00
4:53 PM,57.9,53.1,84,29.65,10.0,Calm,Calm,-,0.02,,Overcast,0,2013-07-09 00:53:00
5:53 PM,59.0,54.0,83,29.65,10.0,South,6.9,-,N/A,,Overcast,180,2013-07-09 01:53:00
6:53 PM,55.9,52.0,87,29.67,10.0,SW,3.5,-,0.03,,Overcast,220,2013-07-09 02:53:00
7:53 PM,57.0,52.0,83,29.68,10.0,SW,4.6,-,0.00,Rain,Light Rain,220,2013-07-09 03:53:00
8:53 PM,57.9,53.1,84,29.68,10.0,Calm,Calm,-,0.00,,Overcast,0,2013-07-09 04:53:00
9:53 PM,57.9,52.0,81,29.69,10.0,Calm,Calm,-,N/A,,Mostly Cloudy,0,2013-07-09 05:53:00
10:53 PM,57.0,54.0,89,29.71,10.0,Calm,Calm,-,0.00,Rain,Light Rain,0,2013-07-09 06:53:00
11:53 PM,57.0,53.1,87,29.72,10.0,Calm,Calm,-,N/A,,Overcast,0,2013-07-09 07:53:00